Retour au catalogue

KUIPER-00520

ActifCommunicationsLEO
NORAD 69601·PAYLOAD·🇺🇸 United States

Lancé Jun 17, 2026 depuis Guiana Space Centre

Loading…

Prochains Passages (prochaines 24 heures)

TLE

FraisSource: CelesTrak SupGP

Époque: Sep 14, 2026, 22:52 UTC

1 69601C 26140K   26257.95321759 -.00000686  00000+0 -97098-4 0  2573
2 69601  51.9021 340.5767 0001019 173.8857 118.5727 14.76598627    11

Suivez KUIPER-00520 en temps réel avec AllMySat

Download on the App Store